Weather History for KPIA - January, 2013

Change the Weather History Date:

Wednesday, January 9, 2013

  Actual Average Record
Temperature  
Mean Temperature 39 °F 25 °F  
Max Temperature 50 °F 33 °F 60 °F (1939)
Min Temperature 28 °F 17 °F -15 °F (1883)
Degree Days  
Heating Degree Days 26 40  
Month to date heating degree days 360  
Since 1 July heating degree days 2638  
Cooling Degree Days 0 0  
Month to date cooling degree days 0  
Year to date cooling degree days 0  
Moisture  
Dew Point 28 °F    
Average Humidity 66    
Maximum Humidity 89    
Minimum Humidity 28    
Precipitation  
Precipitation 0.00 in 0.06 in 0.67 in (1924)
Month to date precipitation 0.58  
Year to date precipitation 0.58  
Snow  
Snow 0.00 in 0.30 in 6.90 in (1930)
Month to date snowfall 2.1  
Since 1 July snowfall 10.3  
Snow Depth -    
Sea Level Pressure  
Sea Level Pressure 30.37 in    
Wind  
Wind Speed 8 mph (West)    
Max Wind Speed 14 mph    
Max Gust Speed 23 mph    
Visibility 10 miles    
Events      
T = Trace of Precipitation, MM = Missing Value Source: NWS Daily Summary

Daily Weather History Graph

Daily Weather History Graph

Search for Another Location

Airport or City:

Trip Planner

Search our weather history database for the weather conditions in past years. The results will help you decide how hot, cold, wet, or windy it might be!

Date:

Astronomy

Jan. 09, 2013 Rise Set
Actual Time 7:22 AM CST 4:50 PM CST
Civil Twilight 6:51 AM CST 5:20 PM CST
Nautical Twilight 6:17 AM CST 5:54 PM CST
Astronomical Twilight 5:44 AM CST 6:27 PM CST
Moon 5:01 AM CST (1/9) 2:51 PM CST (1/9)
Length of Visible Light 10h 28m
Length of Day
9h 27m
Waning Crescent, 6% of the Moon is Illuminated
Jan 9
Waning Crescent
Jan 11
New
Jan 18
First Quarter
Jan 26
Full
Feb 3
Last Quarter

Hourly Weather History & Observations

Time (CST) Temp. Windchill Dew Point Humidity Pressure Visibility Wind Dir Wind Speed Gust Speed Precip Events Conditions
12:54 AM 35.1 °F 27.9 °F 30.0 °F 82% 30.11 in 10.0 mi SW 9.2 mph - N/A   Partly Cloudy
1:54 AM 37.0 °F 31.6 °F 28.9 °F 73% 30.13 in 10.0 mi WSW 6.9 mph - N/A   Clear
2:54 AM 41.0 °F 33.9 °F 30.9 °F 67% 30.17 in 10.0 mi West 12.7 mph - N/A   Clear
3:54 AM 37.9 °F 32.1 °F 30.0 °F 73% 30.19 in 10.0 mi West 8.1 mph - N/A   Clear
4:54 AM 37.0 °F 29.8 °F 30.0 °F 76% 30.22 in 10.0 mi West 10.4 mph - N/A   Clear
5:54 AM 36.0 °F 30.3 °F 30.0 °F 79% 30.24 in 10.0 mi WSW 6.9 mph - N/A   Clear
6:54 AM 34.0 °F 29.8 °F 28.9 °F 82% 30.28 in 10.0 mi WSW 4.6 mph - N/A   Clear
7:54 AM 30.9 °F 26.2 °F 28.0 °F 89% 30.32 in 10.0 mi WSW 4.6 mph - N/A   Clear
8:54 AM 37.0 °F 32.4 °F 30.9 °F 79% 30.34 in 10.0 mi WSW 5.8 mph - N/A   Clear
9:54 AM 41.0 °F 35.2 °F 30.9 °F 67% 30.36 in 10.0 mi West 9.2 mph - N/A   Clear
10:54 AM 43.0 °F 37.2 °F 33.1 °F 68% 30.39 in 10.0 mi WNW 10.4 mph - N/A   Clear
11:54 AM 46.0 °F 40.2 °F 32.0 °F 58% 30.38 in 10.0 mi WNW 12.7 mph 18.4 mph N/A   Clear
12:54 PM 48.0 °F - 30.9 °F 52% 30.37 in 10.0 mi NNW 10.4 mph - N/A   Clear
1:54 PM 48.9 °F - 27.0 °F 43% 30.38 in 10.0 mi WNW 13.8 mph 23.0 mph N/A   Clear
2:54 PM 50.0 °F - 27.0 °F 41% 30.41 in 10.0 mi NW 12.7 mph - N/A   Clear
3:54 PM 48.9 °F - 24.1 °F 38% 30.43 in 10.0 mi NW 8.1 mph 17.3 mph N/A   Clear
4:54 PM 45.0 °F 42.6 °F 26.1 °F 48% 30.44 in 10.0 mi NNW 4.6 mph - N/A   Clear
5:54 PM 37.0 °F 34.5 °F 26.1 °F 65% 30.47 in 10.0 mi SW 3.5 mph - N/A   Clear
6:54 PM 37.0 °F - 27.0 °F 67% 30.49 in 10.0 mi Calm Calm - N/A   Clear
7:54 PM 34.0 °F 31.0 °F 26.1 °F 73% 30.51 in 10.0 mi ENE 3.5 mph - N/A   Clear
8:54 PM 34.0 °F 31.0 °F 27.0 °F 75% 30.50 in 10.0 mi NNE 3.5 mph - N/A   Clear
9:54 PM 30.0 °F - 24.1 °F 79% 30.51 in 10.0 mi Calm Calm - N/A   Clear
10:54 PM 28.9 °F - 24.1 °F 82% 30.53 in 10.0 mi Calm Calm - N/A   Clear
11:54 PM 28.9 °F - 25.0 °F 85% 30.51 in 10.0 mi Calm Calm - N/A   Clear